This is the latest recevied weather packets stored in our database for station/object OE6JVE-13. If no packets are shown the sender has not sent any weather packets the latest 10 day(s).
| Time | Temp. | Humidity | Pressure | Rain* | Wind** | Luminosity | Snow |
|---|---|---|---|---|---|---|---|
| 1788507679 | 21.11° C | 80% | 1012.6 hPa | 0 mm | - | - | - |
| 1788507021 | 20° C | 81% | 1012.6 hPa | 0 mm | - | - | - |
| 1788506429 | 19.44° C | 82% | 1012.6 hPa | 0 mm | - | - | - |
| 1788505837 | 18.89° C | 85% | 1012.6 hPa | 0 mm | - | - | - |
| 1788505245 | 18.33° C | 88% | 1012.6 hPa | 0 mm | - | - | - |
| 1788504653 | 17.78° C | 90% | 1012.6 hPa | 0 mm | - | - | - |
| 1788504061 | 17.22° C | 90% | 1012.6 hPa | 0 mm | - | - | - |
| 1788503468 | 17.22° C | 92% | 1012.7 hPa | 0 mm | - | - | - |
| 1788502876 | 17.22° C | 93% | 1012.7 hPa | 0 mm | - | - | - |
| 1788502219 | 16.67° C | 93% | 1012.8 hPa | 0 mm | - | - | - |
| 1788501626 | 16.67° C | 93% | 1013 hPa | 0 mm | - | - | - |
| 1788501035 | 16.67° C | 94% | 1013 hPa | 0 mm | - | - | - |
| 1788500442 | 16.67° C | 94% | 1012.9 hPa | 0 mm | - | - | - |
| 1788499850 | 16.67° C | 95% | 1012.9 hPa | 0 mm | - | - | - |
| 1788499258 | 16.67° C | 95% | 1012.9 hPa | 0 mm | - | - | - |
| 1788498666 | 16.67° C | 96% | 1012.9 hPa | 0 mm | - | - | - |
| 1788498075 | 16.67° C | 95% | 1012.7 hPa | 0 mm | - | - | - |
| 1788497416 | 16.11° C | 95% | 1012.6 hPa | 0 mm | - | - | - |
| 1788496824 | 16.11° C | 95% | 1012.5 hPa | 0 mm | - | - | - |
| 1788496231 | 16.11° C | 94% | 1012.3 hPa | 0 mm | - | - | - |
| 1788495639 | 15.56° C | 94% | 1012.3 hPa | 0 mm | - | - | - |
| 1788495047 | 15.56° C | 93% | 1012.5 hPa | 0 mm | - | - | - |
| 1788494455 | 15.56° C | 93% | 1012.4 hPa | 0 mm | - | - | - |
| 1788493863 | 15.56° C | 92% | 1012.3 hPa | 0 mm | - | - | - |
| 1788493271 | 16.11° C | 92% | 1012.6 hPa | 0 mm | - | - | - |
* Rain latest hour (hover to see other rain measurements)
** Current wind speed in m/s (hover to see current wind gust speed)